• In Hungary
  • List of Countries
  • For 7 days
  • Water Temperature
  • Satellite Maps
  • Weather Map
  • News
  • Weather Widgets
  • user-avatar
    Login

    Hourly Weather San José de Galipán

    Today, 13 December, Wednesday

    Time Temperature Precipitation Wind Pressure Humidity
    00:00 +17°C° 0 mm 2 mps 656 mmHg 95%
    01:00 +17°C° 0 mm 2 mps 656 mmHg 95%
    02:00 +17°C° 0 mm 2 mps 656 mmHg 95%
    03:00 +17°C° 0 mm 2 mps 656 mmHg 95%
    04:00 +17°C° 0 mm 2 mps 656 mmHg 95%
    05:00 +18°C° 0 mm 1 mps 656 mmHg 95%
    06:00 +18°C° 0 mm 1 mps 657 mmHg 93%
    07:00 +19°C° 0 mm 1 mps 657 mmHg 92%
    08:00 +19°C° 0 mm 1 mps 658 mmHg 90%
    09:00 +20°C° 0.1 mm 1 mps 658 mmHg 87%
    10:00 +20°C° 0.1 mm 2 mps 659 mmHg 83%
    11:00 +21°C° 0.1 mm 2 mps 659 mmHg 79%
    12:00 +23°C° 0.2 mm 2 mps 659 mmHg 78%
    13:00 +23°C° 0.2 mm 2 mps 658 mmHg 76%
    14:00 +24°C° 0.2 mm 2 mps 658 mmHg 75%
    15:00 +23°C° 0.2 mm 2 mps 657 mmHg 78%
    16:00 +21°C° 0.2 mm 2 mps 657 mmHg 81%
    17:00 +21°C° 0.2 mm 3 mps 656 mmHg 84%
    18:00 +20°C° 0.1 mm 3 mps 656 mmHg 88%
    19:00 +19°C° 0.1 mm 3 mps 657 mmHg 91%
    20:00 +19°C° 0.1 mm 3 mps 657 mmHg 94%
    21:00 +18°C° 0.1 mm 3 mps 657 mmHg 94%
    22:00 +18°C° 0.1 mm 3 mps 657 mmHg 95%
    23:00 +18°C° 0.1 mm 3 mps 657 mmHg 95%

    Tomorrow, 14 December, Thursday

    Time Temperature Precipitation Wind Pressure Humidity
    00:00 +18°C° 0.3 mm 3 mps 657 mmHg 95%
    01:00 +18°C° 0.3 mm 3 mps 657 mmHg 95%
    02:00 +18°C° 0.3 mm 3 mps 657 mmHg 95%
    03:00 +18°C° 0.4 mm 3 mps 656 mmHg 95%
    04:00 +17°C° 0.4 mm 3 mps 656 mmHg 95%
    05:00 +17°C° 0.4 mm 3 mps 656 mmHg 95%
    06:00 +18°C° 0.3 mm 3 mps 657 mmHg 94%
    07:00 +18°C° 0.3 mm 3 mps 657 mmHg 93%
    08:00 +18°C° 0.3 mm 3 mps 658 mmHg 92%
    09:00 +20°C° 0.1 mm 3 mps 658 mmHg 82%
    10:00 +22°C° 0.1 mm 3 mps 659 mmHg 72%
    11:00 +25°C° 0.1 mm 4 mps 659 mmHg 62%
    12:00 +25°C° 0.1 mm 4 mps 659 mmHg 62%
    13:00 +25°C° 0.1 mm 4 mps 658 mmHg 62%
    14:00 +25°C° 0.1 mm 5 mps 657 mmHg 62%
    15:00 +23°C° 0.1 mm 5 mps 657 mmHg 65%
    16:00 +23°C° 0.1 mm 5 mps 656 mmHg 69%
    17:00 +22°C° 0.1 mm 5 mps 656 mmHg 72%
    18:00 +21°C° 0 mm 4 mps 656 mmHg 78%
    19:00 +20°C° 0 mm 4 mps 656 mmHg 85%
    20:00 +19°C° 0 mm 4 mps 657 mmHg 91%
    21:00 +18°C° 0.1 mm 4 mps 657 mmHg 92%
    22:00 +18°C° 0.1 mm 4 mps 657 mmHg 93%
    23:00 +18°C° 0.1 mm 4 mps 658 mmHg 94%

    Day after tomorrow, 15 December, Friday

    Time Temperature Precipitation Wind Pressure Humidity
    00:00 +18°C° 0.1 mm 4 mps 657 mmHg 94%
    01:00 +18°C° 0.1 mm 4 mps 657 mmHg 95%
    02:00 +18°C° 0.1 mm 4 mps 657 mmHg 95%
    03:00 +17°C° 0.2 mm 4 mps 657 mmHg 96%
    04:00 +17°C° 0.2 mm 4 mps 657 mmHg 96%
    05:00 +17°C° 0.2 mm 4 mps 656 mmHg 96%
    06:00 +18°C° 0.1 mm 4 mps 657 mmHg 95%
    07:00 +18°C° 0.1 mm 4 mps 657 mmHg 94%
    08:00 +18°C° 0.1 mm 4 mps 658 mmHg 92%
    09:00 +19°C° 0.1 mm 4 mps 658 mmHg 87%
    10:00 +20°C° 0.1 mm 4 mps 658 mmHg 82%
    11:00 +21°C° 0.1 mm 4 mps 659 mmHg 77%
    12:00 +22°C° 0 mm 4 mps 658 mmHg 70%
    13:00 +23°C° 0 mm 4 mps 658 mmHg 64%
    14:00 +25°C° 0 mm 4 mps 657 mmHg 58%
    15:00 +23°C° 0 mm 4 mps 657 mmHg 65%
    16:00 +22°C° 0 mm 4 mps 656 mmHg 71%
    17:00 +21°C° 0 mm 4 mps 656 mmHg 78%
    18:00 +20°C° 0.1 mm 4 mps 656 mmHg 83%
    19:00 +19°C° 0.1 mm 4 mps 656 mmHg 88%
    20:00 +19°C° 0.1 mm 4 mps 656 mmHg 93%
    21:00 +18°C° 0.1 mm 4 mps 657 mmHg 93%
    22:00 +18°C° 0.1 mm 3 mps 657 mmHg 94%
    23:00 +18°C° 0.1 mm 3 mps 657 mmHg 94%

    16 December, Saturday

    Time Temperature Precipitation Wind Pressure Humidity
    00:00 +18°C° 0.2 mm 3 mps 657 mmHg 95%
    01:00 +18°C° 0.2 mm 3 mps 656 mmHg 95%
    02:00 +18°C° 0.2 mm 4 mps 656 mmHg 95%
    03:00 +18°C° 0.4 mm 3 mps 656 mmHg 95%
    04:00 +18°C° 0.4 mm 3 mps 656 mmHg 95%
    05:00 +18°C° 0.4 mm 3 mps 656 mmHg 95%
    06:00 +18°C° 0.1 mm 4 mps 656 mmHg 94%
    07:00 +18°C° 0.1 mm 4 mps 657 mmHg 93%
    08:00 +18°C° 0.1 mm 4 mps 658 mmHg 92%
    09:00 +19°C° 0 mm 4 mps 658 mmHg 86%
    10:00 +20°C° 0 mm 4 mps 658 mmHg 80%
    11:00 +22°C° 0 mm 4 mps 659 mmHg 74%
    12:00 +22°C° 0.1 mm 4 mps 658 mmHg 72%
    13:00 +23°C° 0.1 mm 4 mps 657 mmHg 70%
    14:00 +23°C° 0.1 mm 4 mps 657 mmHg 68%
    15:00 +22°C° 0.2 mm 4 mps 656 mmHg 73%
    16:00 +22°C° 0.2 mm 4 mps 656 mmHg 78%
    17:00 +21°C° 0.2 mm 4 mps 656 mmHg 83%
    18:00 +20°C° 0.1 mm 4 mps 656 mmHg 87%
    19:00 +19°C° 0.1 mm 4 mps 656 mmHg 90%
    20:00 +18°C° 0.1 mm 4 mps 656 mmHg 94%
    21:00 +18°C° 0.1 mm 4 mps 656 mmHg 93%
    22:00 +18°C° 0.1 mm 4 mps 657 mmHg 93%
    23:00 +18°C° 0.1 mm 4 mps 657 mmHg 93%

    17 December, Sunday

    Time Temperature Precipitation Wind Pressure Humidity
    00:00 +18°C° 0.1 mm 3 mps 656 mmHg 93%
    01:00 +17°C° 0.1 mm 3 mps 656 mmHg 94%
    02:00 +17°C° 0.1 mm 3 mps 656 mmHg 95%
    03:00 +17°C° 0.3 mm 3 mps 656 mmHg 95%
    04:00 +17°C° 0.3 mm 3 mps 656 mmHg 96%
    05:00 +18°C° 0.3 mm 3 mps 656 mmHg 96%
    06:00 +18°C° 0.5 mm 4 mps 656 mmHg 95%
    07:00 +18°C° 0.5 mm 4 mps 657 mmHg 94%
    08:00 +18°C° 0.5 mm 4 mps 657 mmHg 94%
    09:00 +18°C° 0.5 mm 4 mps 657 mmHg 93%
    10:00 +19°C° 0.5 mm 4 mps 657 mmHg 92%
    11:00 +19°C° 0.5 mm 4 mps 658 mmHg 92%
    12:00 +19°C° 0.4 mm 4 mps 657 mmHg 91%
    13:00 +19°C° 0.4 mm 4 mps 657 mmHg 90%
    14:00 +20°C° 0.4 mm 4 mps 656 mmHg 89%
    15:00 +20°C° 0.2 mm 4 mps 656 mmHg 88%
    16:00 +20°C° 0.2 mm 4 mps 656 mmHg 87%
    17:00 +20°C° 0.2 mm 4 mps 655 mmHg 87%
    18:00 +19°C° 0.1 mm 4 mps 656 mmHg 89%
    19:00 +19°C° 0.1 mm 4 mps 656 mmHg 92%
    20:00 +18°C° 0.1 mm 4 mps 656 mmHg 94%
    21:00 +18°C° 0 mm 3 mps 656 mmHg 94%
    22:00 +18°C° 0 mm 3 mps 657 mmHg 94%
    23:00 +17°C° 0 mm 3 mps 657 mmHg 95%

    18 December, Monday

    Time Temperature Precipitation Wind Pressure Humidity
    00:00 +17°C° 0.1 mm 3 mps 656 mmHg 95%
    01:00 +17°C° 0.1 mm 3 mps 656 mmHg 95%
    02:00 +17°C° 0.1 mm 3 mps 656 mmHg 95%
    03:00 +17°C° 0.1 mm 3 mps 656 mmHg 96%
    04:00 +17°C° 0.1 mm 3 mps 656 mmHg 96%
    05:00 +17°C° 0.1 mm 3 mps 656 mmHg 96%
    06:00 +17°C° 0 mm 3 mps 656 mmHg 94%
    07:00 +18°C° 0 mm 3 mps 657 mmHg 93%
    08:00 +18°C° 0 mm 3 mps 657 mmHg 92%
    09:00 +19°C° 0 mm 3 mps 658 mmHg 85%
    10:00 +21°C° 0 mm 4 mps 658 mmHg 78%
    11:00 +22°C° 0 mm 4 mps 658 mmHg 71%
    12:00 +23°C° 0 mm 4 mps 658 mmHg 68%
    13:00 +25°C° 0 mm 4 mps 657 mmHg 66%
    14:00 +25°C° 0 mm 4 mps 657 mmHg 63%
    15:00 +23°C° 0 mm 4 mps 656 mmHg 68%
    16:00 +22°C° 0 mm 4 mps 656 mmHg 73%
    17:00 +22°C° 0 mm 4 mps 656 mmHg 78%
    18:00 +21°C° 0.1 mm 4 mps 656 mmHg 83%
    19:00 +20°C° 0.1 mm 4 mps 656 mmHg 88%
    20:00 +19°C° 0.1 mm 4 mps 656 mmHg 93%
    21:00 +19°C° 0.2 mm 4 mps 657 mmHg 93%
    22:00 +19°C° 0.2 mm 4 mps 657 mmHg 94%
    23:00 +18°C° 0.2 mm 4 mps 657 mmHg 95%
    Show more